Flag for France Weather past 2 weeks in Istres, France

Now
90 °F

Passing clouds.


Feels Like: 89 °F
Forecast: 72 / 92 °F
Wind: 7 mph from West

Location: Istres Airport

Current Time: Aug 4, 2015 at 2:02:58 PM

Latest Report: Aug 4, 2015 at 1:30 PM


Visibility: N/A

Pressure: 29.98 "Hg

Humidity: 36%

Dew point: 59 °F

Location of IstresLocation

Historic Weather in Istres — Graph

°F

Istres temperature yesterday

Maximum temperature yesterday: 90 °F (at 1:00 PM)
Minimum temperature yesterday: 64 °F (at 4:30 AM)
Average temperature yesterday: 76 °F

Past Weeks' High & Low Weather Summary

 TemperatureHumidityPressure
High97 °F (Jul 20, 3:00 PM)94% (Jul 22, 4:00 AM)30.04 "Hg (Jul 22, 4:00 AM)
Low63 °F (Jul 31, 6:30 AM)18% (Jul 25, 4:00 PM)29.74 "Hg (Jul 24, 5:00 PM)
Average79 °F51%29.89 "Hg
* Reported Jul 20 1:00 PM — Aug 4 1:00 PM, Istres, Weather by CustomWeather, © 2015

Note: Actual official high and low records may vary slightly from our data, if they occured in-between our weather recording intervals... More about our weather records

Advertising

Istres weather history for previous 24 hours

 ConditionsComfort  
Time TempWeatherWind HumidityBarometerVisibility
1:00 PM
Tue, Aug 4
91 °FPassing clouds.8 mph34%29.98 "HgN/A
12:30 PM88 °FSunny.3 mph40%29.98 "Hg10 mi
12:00 PM88 °FWarm.5 mph46%29.98 "HgN/A
11:30 AM84 °FPassing clouds.9 mph55%30.01 "HgN/A
11:00 AM81 °FPassing clouds.6 mph62%30.01 "HgN/A
10:30 AM81 °FSunny.14 mph62%30.01 "Hg10 mi
10:00 AM77 °FSunny.16 mph74%30.01 "Hg10 mi
9:30 AM77 °FSunny.15 mph69%29.98 "Hg10 mi
9:00 AM79 °FWarm.9 mph61%29.92 "HgN/A
8:30 AM75 °FPassing clouds.8 mph78%29.89 "HgN/A
8:00 AM73 °FClear.17 mph89%29.89 "Hg6 mi
7:30 AM73 °FMild.5 mph89%30.01 "Hg5 mi
7:00 AM73 °FClear.5 mph89%30.01 "Hg4 mi
6:30 AM73 °FClear.2 mph83%30.01 "Hg6 mi
6:00 AM73 °FClear.2 mph83%30.01 "Hg10 mi
5:00 AM73 °FPartly cloudy.14 mph83%30.04 "HgN/A
4:30 AM75 °FOvercast.13 mph78%30.01 "HgN/A
4:00 AM73 °FMild.8 mph83%29.92 "HgN/A
3:30 AM73 °FClear.12 mph83%29.92 "Hg10 mi
3:00 AM72 °FClear.9 mph88%29.95 "Hg10 mi
2:30 AM73 °FClear.6 mph83%29.95 "Hg10 mi
2:00 AM73 °FPassing clouds.7 mph83%29.98 "HgN/A
1:30 AM73 °FPassing clouds.3 mph83%30.01 "HgN/A
1:00 AM75 °FPassing clouds.2 mph78%30.01 "HgN/A
12:30 AM75 °FPassing clouds.6 mph83%30.01 "HgN/A
12:00 AM75 °FOvercast.6 mph83%30.01 "HgN/A
11:30 PM
Mon, Aug 3
75 °FOvercast.6 mph83%30.01 "HgN/A
11:00 PM75 °FOvercast.6 mph89%30.01 "HgN/A
10:30 PM73 °FPassing clouds.5 mph94%30.01 "HgN/A
10:00 PM73 °FPassing clouds.7 mph89%29.98 "HgN/A
9:30 PM73 °FSunny.5 mph89%29.98 "Hg10 mi
9:00 PM75 °FSunny.6 mph83%29.98 "Hg10 mi
8:30 PM75 °FSunny.9 mph83%29.98 "Hg10 mi
8:00 PM77 °FSunny.10 mph79%29.98 "Hg10 mi
7:30 PM79 °FSunny.12 mph74%29.98 "Hg10 mi
7:00 PM81 °FSunny.12 mph66%29.98 "Hg10 mi
6:30 PM82 °FSunny.10 mph58%29.98 "Hg10 mi
6:00 PM84 °FSunny.13 mph55%29.98 "Hg10 mi
5:30 PM86 °FPassing clouds.10 mph49%29.98 "HgN/A
5:00 PM86 °FPassing clouds.9 mph46%29.98 "HgN/A
4:30 PM86 °FPassing clouds.9 mph46%29.98 "HgN/A
4:00 PM88 °FPassing clouds.12 mph43%29.98 "HgN/A
3:30 PM88 °FPassing clouds.10 mph43%30.01 "HgN/A
3:00 PM88 °FPassing clouds.12 mph43%30.01 "HgN/A
2:30 PM88 °FPassing clouds.8 mph43%30.01 "HgN/A
2:00 PM88 °FPassing clouds.12 mph40%30.01 "HgN/A
Weather by CustomWeather, © 2015

See weather overviewHow to use our weather pages